Regional Weather Roundup
Issued by NWS

Home | Current Version | Previous Version | Text Only | Print | Product List | Glossary Off
Versions: 1 2 3 4 5 6 7 8 9 10 11 12 13 14 15 16 17 18 19 20 21 22 23 24 25 26 27 28 29 30 31 32 33 34 35 36 37 38 39 40 41 42 43 44 45 46 47 48 49 50

000
ASUS43 KLSX 230207
RWRMO

WEATHER SUMMARY FOR MISSOURI
NATIONAL WEATHER SERVICE SPRINGFIELD MO
900 PM CDT SUN OCT 22 2017

NOTE: "FAIR" INDICATES FEW OR NO CLOUDS BELOW 12,000 FEET WITH NO
       SIGNIFICANT WEATHER AND/OR OBSTRUCTIONS TO VISIBILITY.
       CURRENT SKY AND/OR WEATHER CONDITIONS ARE NOT AVAILABLE FOR
       CHILLICOTHE AND FARMINGTON.

MOZ001>031-035>038-043-044-053-054-230300-
...NORTHERN AND WESTERN MISSOURI...

CITY           SKY/WX    TMP DP  RH WIND       PRES   REMARKS
KANSAS CTY INT PTCLDY    48  40  73 S9        30.07F
KANSAS C DTWN  CLEAR     54  47  77 CALM      30.08F
LEE`S SUMMIT   CLEAR     53  40  61 SE7       30.09F
ST JOSEPH      CLEAR     47  46  97 SW3       30.06F
CHILLICOTHE      N/A     49  48  97 CALM      30.09F
KIRKSVILLE     CLOUDY    49  49 100 CALM      30.08F

$$
MOZ066>068-077>081-088>096-101>105-230300-
...SOUTHWEST MISSOURI...

CITY           SKY/WX    TMP DP  RH WIND       PRES   REMARKS
SPRINGFIELD    CLOUDY    51  50  96 SW3       30.10S
JOPLIN         CLEAR     48  48 100 MISG      30.12S
BRANSON        CLOUDY    50  48  93 CALM      30.12F

$$
MOZ032>034-039>042-045>050-055>058-069>072-230300-
...CENTRAL MISSOURI...

CITY           SKY/WX    TMP DP  RH WIND       PRES   REMARKS
COLUMBIA       CLOUDY    52  51  97 W6        30.08S
JEFFERSON CITY CLOUDY    53  50  89 CALM      30.08S
ROLLA          LGT RAIN  50  50 100 NW9       30.07S
SEDALIA        PTCLDY    53  52  96 CALM      30.10F
WHITEMAN AFB   PTCLDY    49  48  96 SW3       30.05F
WARRENSBURG    CLEAR     48  43  81 S3        30.10S
OSAGE BEACH    CLOUDY    52  50  93 W5        30.10S

$$
MOZ051-052-059>065-230300-
...EAST CENTRAL MISSOURI...

CITY           SKY/WX    TMP DP  RH WIND       PRES   REMARKS
ST LOUIS INTL  LGT RAIN  52  51  97 N8        30.04F
SPIRIT OF STL  LGT RAIN  53  52  96 N6        30.03F
ST CHARLES     LGT RAIN  53  51  93 N7        30.03F

$$
MOZ072>076-082>087-097>100-106>115-230300-
...SOUTH CENTRAL AND SOUTHEAST MISSOURI...

CITY           SKY/WX    TMP DP  RH WIND       PRES   REMARKS
CAPE GIRARDEAU LGT RAIN  55  53  93 NW10      29.96S
FARMINGTON     RAIN      51  49  92 NW7       30.02F
POPLAR BLUFF   LGT RAIN  54  53  97 N13       29.99F FOG
WEST PLAINS    LGT RAIN  51  49  92 N7        30.07S

$$



USA.gov is the U.S. government's official web portal to all federal, state and local government web resources and services.